Regional Weather Roundup
Issued by NWS

Home | Current Version | Previous Version | Text Only | Print | Product List | Glossary On
Versions: 1 2 3 4 5 6 7 8 9 10 11 12 13 14 15 16 17 18 19 20 21 22 23 24 25 26 27 28 29 30 31 32 33 34 35 36 37 38 39 40 41 42 43 44 45 46 47 48 49 50
000
ASUS44 KMEG 301510
RWRTN
TENNESSEE HOURLY STATE WEATHER ROUNDUP
NATIONAL WEATHER SERVICE MEMPHIS TN
1000 AM CDT TUE JUN 30 2015

TNZ002-004-019-021-049-052-054-088>092-301600-
WEST TENNESSEE

CITY           SKY/WX    TMP DP  RH WIND       PRES   REMARKS
MEMPHIS INTL   PTSUNNY   80  73  79 SW8       29.99R
NWS MEMPHIS      N/A     79 N/A N/A MISG        N/A
JACKSON        MOSUNNY   80  69  69 SW9       29.97R
DYERSBURG        N/A    N/A N/A N/A MISG        N/A
PARIS          SUNNY     79  70  73 SW5       29.95S
LEXINGTON      SUNNY     79  70  73 SW7       29.96R
$$

TNZ008-025-027-028-033-062-065-066-301600-
NORTH MIDDLE TENNESSEE

CITY           SKY/WX    TMP DP  RH WIND       PRES   REMARKS
NASHVILLE      CLOUDY    79  72  79 SW5       29.96R
CLARKSVILLE    SUNNY     77  71  82 VRB3      29.94R
SMYRNA         MOSUNNY   82  71  69 VRB7      29.96S
COOKEVILLE     PTSUNNY   79  73  83 SW8       29.98S
CROSSVILLE     PTSUNNY   75  67  76 VRB7      30.03R THUNDER
$$

TNZ061-075-076-078-094-096-097-301600-
SOUTH MIDDLE TENNESSEE

CITY           SKY/WX    TMP DP  RH WIND       PRES   REMARKS
FAYETTEVILLE   SUNNY     77  66  69 W10       29.99F
TULLAHOMA      MOSUNNY   77  66  69 SW6       30.00S
WINCHESTER     MOSUNNY   81  70  69 W10       29.99S
MCMINNVILLE    MOSUNNY   79  72  78 SW6       29.99S
COLUMBIA       SUNNY     81  72  74 SW8       29.96S
SHELBYVILLE    PTSUNNY   81  72  74 SW7       29.98F
$$

TNZ017-018-042-046-047-301600-
NORTHEAST TENNESSEE

CITY           SKY/WX    TMP DP  RH WIND       PRES   REMARKS
TRI CITIES     PTSUNNY   72  63  73 SW7       30.01F
ELIZABETHTON   MOSUNNY   70  61  73 CALM      30.01F
$$

TNZ012-013-036-069-073-074-301600-
CENTRAL EAST TENNESSEE

CITY           SKY/WX    TMP DP  RH WIND       PRES   REMARKS
KNOXVILLE      MOSUNNY   75  68  78 SW7       29.98F
OAK RIDGE      PTSUNNY   75  67  76 VRB6      30.00S
GATLINBURG     SUNNY     73  66  78 CALM      29.97F
MORRISTOWN     SUNNY     75  68  78 VRB5      30.00F
$$

TNZ083-085-099-301600-
SOUTHEAST TENNESSEE

CITY           SKY/WX    TMP DP  RH WIND       PRES   REMARKS
CHATTANOOGA    MOSUNNY   76  70  82 S3        29.99S
$$

SKY/WX REPORTED AS FAIR MEANS FEW OR NO CLOUDS BELOW
12 THOUSAND FEET.




USA.gov is the U.S. government's official web portal to all federal, state and local government web resources and services.